Weather in Pushino

Russia / Moscow Oblast     54°49′56″N   37°37′15″E
temp.,
°C
wind,
m/s
gust,
m/s
humid.,
%
clouds,
%
prec.,
mm/h
press.,
hPa
HPBL,
m
16 june, wed
wed1600:00+16nw34944 2.8 101055
03:00+15nw36950 3.4 1011117
06:00+15nw37930 0.0 1011196
09:00+20nnw467622 0.0 1012568
12:00+22n566128 0.0 10121537
15:00+22n566491 0.3 10131444
18:00+22n47610 0.0 1014480
21:00+15nne33780 0.0 101744
17 june, thu
thu1700:00+12nne22790 0.0 101918
03:00+11nne22759 0.0 102124
06:00+13nne26785 0.0 1022153
09:00+19nne35595 0.0 1023597
12:00+22ne34489 0.0 10241596
15:00+22ne344999 0.0 10241670
18:00+21ne35630 0.0 1024496
21:00+16e22690 0.0 102511
18 june, fri
fri1800:00+13ese22810 0.0 102719
03:00+12se11780 0.0 102710
06:00+15e11755 0.0 102846
09:00+19e23633 0.0 1028475
12:00+22se33564 0.0 10281162
15:00+23se33555 0.0 10271329
18:00+22sse22655 0.0 10271113
21:00+17sse22805 0.0 102714
19 june, sat
sat1900:00+14ssw228753 0.0 102814
03:00+13ssw22905 0.0 102815
06:00+16ssw22865 0.0 102983
09:00+20s22713 0.0 1028534
12:00+23s33600 0.0 10281089
15:00+24s33573 0.0 10261258
18:00+23s33675 0.0 1025615
21:00+17s22845 0.0 102612
20 june, sun
sun2000:00+15ssw22895 0.0 102623
03:00+14ssw22912 0.0 102620
06:00+16s23870 0.0 102695
09:00+20s23690 0.0 1026512
12:00+23s34580 0.0 10251062
15:00+25ssw34550 0.0 10231215
18:00+24sw23670 0.0 1022892
21:00+19ssw12811 0.0 102211